Location: Blangy-Tronville
(49.8790°N, 2.4226°E)
Time: 21:52:52
(UTC+00:00)

Cosmos 2016 Rocket - Pass Details

Date: 18 November 2025
Orbit: 946 x 999 km, 83.0° (Epoch: 10 December)

Event Time Altitude Azimuth Distance (km) Brightness Sun altitude
Rises 16:23:16 0° 179° (S) 3,677 7.4 -3.7°
Reaches altitude 10° 16:25:46 10° 177° (S) 2,740 6.7 -4.1°
Maximum altitude 16:32:02 71° 95° (E) 1,051 4.1 -5.0°
Drops below altitude 10° 16:38:23 10° 13° (NNE) 2,780 6.0 -6.0°
Sets 16:40:56 0° 12° (NNE) 3,735 6.7 -6.3°
